Flag for Japan Weather past 2 weeks in Kawasaki, Japan

Now
79 °F

Clear.


Feels Like: 82 °F
Forecast: 79 / 88 °F
Wind: 3 mph from South

Location: Tokyo International Airport

Current Time: Jul 23, 2014 at 9:11:04 AM

Latest Report: Jul 23, 2014 at 2:00 AM


Visibility: 10 mi

Pressure: 29.71 "Hg

Humidity: 84%

Dew point: 73 °F

Location of KawasakiLocation

Historic Weather in Kawasaki — Graph

°F

Kawasaki temperature yesterday

Maximum temperature yesterday: 86 °F (at 1:00 PM)
Minimum temperature yesterday: 75 °F (at 5:00 AM)
Average temperature yesterday: 80 °F

Past Weeks' High & Low Weather Summary

 TemperatureHumidityPressure
High90 °F (Jul 12, 3:00 PM)100% (Jul 8, 5:00 AM)29.95 "Hg (Jul 8, 5:00 AM)
Low72 °F (Jul 8, 1:30 AM)52% (Jul 8, 3:30 PM)29.21 "Hg (Jul 11, 5:00 AM)
Average78 °F81%29.75 "Hg
* Reported Jul 8 1:00 AM — Jul 23 1:30 AM, Kawasaki, Weather by CustomWeather, © 2014

Note: Actual official high and low records may vary slightly from our data, if they occured in-between our weather recording intervals... More about our weather records

Advertising

Kawasaki weather history for previous 24 hours

 ConditionsComfort  
Time TempWeatherWind HumidityBarometerVisibility
1:30 AM
Jul 23
79 °FPassing clouds.3 mph84%29.71 "HgN/A
1:00 AM81 °FPassing clouds.5 mph79%29.71 "HgN/A
12:30 AM81 °FClear.9 mph79%29.71 "Hg10 mi
12:00 AM81 °FClear.12 mph79%29.71 "Hg10 mi
11:30 PM
Jul 22
81 °FPassing clouds.12 mph79%29.71 "HgN/A
11:00 PM81 °FClear.10 mph79%29.74 "Hg10 mi
10:30 PM81 °FClear.10 mph79%29.74 "Hg10 mi
10:00 PM81 °FClear.10 mph79%29.74 "Hg10 mi
9:30 PM81 °FClear.9 mph84%29.74 "Hg10 mi
9:00 PM81 °FClear.10 mph84%29.74 "Hg6 mi
8:30 PM79 °FClear.13 mph89%29.74 "Hg6 mi
8:00 PM79 °FClear.13 mph89%29.74 "Hg6 mi
7:30 PM81 °FClear.9 mph84%29.74 "Hg6 mi
7:00 PM81 °FClear.14 mph84%29.71 "Hg5 mi
6:30 PM81 °FClear.15 mph84%29.71 "Hg6 mi
6:00 PM82 °FSunny.14 mph79%29.71 "Hg10 mi
5:30 PM82 °FSunny.15 mph79%29.71 "Hg10 mi
5:00 PM82 °FSunny.15 mph79%29.71 "Hg10 mi
4:30 PM84 °FPartly sunny.15 mph74%29.71 "HgN/A
4:00 PM84 °FPartly sunny.16 mph74%29.71 "HgN/A
3:30 PM84 °FPartly sunny.17 mph74%29.74 "Hg6 mi
3:00 PM84 °FPartly sunny.18 mph74%29.74 "HgN/A
2:30 PM84 °FPartly sunny.20 mph74%29.74 "HgN/A
2:00 PM86 °FPartly sunny.17 mph66%29.74 "HgN/A
1:30 PM86 °FPartly sunny.17 mph66%29.77 "HgN/A
1:00 PM86 °FPartly sunny.16 mph62%29.77 "HgN/A
12:30 PM84 °FPartly sunny.15 mph66%29.77 "HgN/A
12:00 PM84 °FPartly sunny.14 mph66%29.77 "HgN/A
11:30 AM84 °FPartly sunny.10 mph70%29.77 "Hg6 mi
11:00 AM82 °FPartly sunny.9 mph79%29.80 "Hg6 mi
10:30 AM82 °FPartly sunny.8 mph74%29.80 "Hg6 mi
10:00 AM82 °FBroken clouds.7 mph74%29.80 "HgN/A
9:30 AM81 °FBroken clouds.6 mph79%29.83 "HgN/A
9:00 AM81 °FMore clouds than sun.6 mph79%29.83 "HgN/A
Weather by CustomWeather, © 2014

See weather overviewHow to use our weather pages